Starlink 31996

operational
NORAD ID: 60100 Int'l Des: 2024-117 Owner: SPXS Country: US Constellation: starlink
LEOCIRCULAR

Über Starlink 31996

Beschreibung wird geladen...

Live-Position

3D-Globus wird geladen...

Nächste Überflüge

Höhenverlauf

Altitude vs Time

uPlot chart will show altitude changes over time

Zweizeiliger Elementsatz

1 60100U 24117K 26036.71109251 -.00000052 00000-0 10377-4 0 9995
2 60100 53.1589 185.4281 0001047 88.3134 271.7987 15.30190003 91999
Epoch: 5. Feb. 2026 • Age: 6 hours

Aktueller Status

Höhe 476.0 km
Geschwindigkeit 7.63 km/s
Subsatellitenpunkt 26.46°N, 77.58°E
Startdatum 23. Juni 2024
Alter 1.6 years
Typ internet

Technische Details

Klassifizierung Payload
Masse 730.00 kg
Trockenmasse 700.00 kg
Gesamtmasse 730.00 kg
Länge 0.30 m
Durchmesser 4.10 m
Spannweite 29.00 m
Form Box + pan
Hersteller SPXS
Bus-Typ Starlink V2M
Phasenstatus In Orbit
Besitzer/Staat SPXS/US

Große Konstellationen

Loading constellations...